STARLINK-31292, 59081

Orbit data source: Space-Track

STARLINK-31292, 59081 is a payload satellite owned by SpaceX/Seattle (US) in LEO that was launched on Thu, 29 Feb 2024 UTC via an FALCON 9 launch vehicle from the Air Force Eastern Test Range (AFETR). Payload-class satellites include a variety of spacecraft equipped with specific instruments for various scientific and technological missions. These include communications satellites like Starlink; space stations such as the ISS; scientific satellites like the Hubble; Earth observation satellites from companies like Planet Labs, Umbra, and HawkEye 360; GPS; miniature CubeSats for education and research; and military/defense satellites.

Loading next visibility...
Identifier
59081, 2024-041H
Orbit
LEO
Country
Flag of USUS
Related business
Manufacturer
SpaceX/Seattle
Mission
Operational Commercial Communications
Bus & Motor
STARLINK V2M, Unknown motor
Mass
730 kg wet, ~700 kg dry
Launch date (UTC)
2024-02-29 (2 years ago)
Launch vehicle
FALCON 9
Launch site
Air Force Eastern Test Range (AFETR)
Object type
Payload
Rocket body
Debris
Shape & HBR
Box + 2 Pan, 17.7 m
Radar Cross Section
33.884 m², Large (>1 m²)

Expand to show TLE details & history
Last TLE update: 3 days ago

TLE from 3 days ago
0 STARLINK-31292
1 59081U 24041H   26170.49032946  .00000479  00000-0  26929-4 0  9999
2 59081  43.0034  95.5291 0000928 283.5667  76.5082 15.27577032129836
Epoch: 2026-06-19T11:46Z
TLE epoch observation values (Epoch: 2026-06-19T11:46:04.465Z)
Latitude
0.00004°
Longitude
11.29198°
Altitude
482.685 km
Speed
7.626 km/s
True Right ascension
06h 22m 06s
True Declination
0° 00' 00"
Sunlit
Object was in daylight at epoch
Visualization orbit readout
Latitude
Unknown
Longitude
Unknown
Altitude
Unknown
Speed
Unknown
Apparent Right ascension
Unknown
Apparent Declination
Unknown
Sunlit
N/A
Visualization observer readout
Local Sidereal Time
21:32:33
Azimuth
Unknown
Elevation
Unknown
Doppler factor
Unknown
Orbital elements
Apogee altitude
485.639 km
Perigee altitude
484.366 km
Semi-major axis
6,863.14 km
Eccentricity
0.00009
Inclination
43.0034°
RAAN
95.5291°
Arg. of periapsis
283.5667°
True anomaly
76.51854°
Mean anomaly
76.5082°
Eccentric anomaly
76.51337°
Mean motion
3.81732 °/min
Orbital period
94.31 mins
BSTAR
0.000026929
Loading maneuver chart data...
Computing Atmospheric mass density...
Loading historical data...
Loading historical data...
Loading historical data...
Loading historical data...
Loading historical data...
Loading historical data...
Loading historical data...

Documentation

Showing up to 5 results
|